EHI
0 0 0 0 0 1 3 6 10 20 34 48 57 53 38 26 22 17 8 2 1 0 0 0 0 0 0 0 0 0 0 0 1 2 3 3 1 0 0 0 0 0 0
0 0 0 0 0 0 1 2 5 10 17 26 36 39 31 23 19 14 5 1 0 0 0 0 0 0 0 0 0 0 0 0 0 1 1 1 0 0 0 0 0 0 0
0 0 0 0 0 0 0 0 1 1 3 7 14 19 21 21 16 8 2 1 0 0 0 0 0 0 0 0 0 0 0 0 0 0 0 0 0 0 0 0 0 0 0
0 0 0 0 0 0 0 0 0 0 1 2 4 8 13 15 11 4 1 2 2 1 0 0 0 0 0 0 0 0 0 0 0 0 0 0 0 0 0 0 0 0 0
0 0 0 0 0 0 0 0 0 0 0 0 1 3 5 6 4 1 0 2 4 3 1 0 0 0 0 0 0 0 0 0 0 0 0 0 0 0 0 0 0 0 0
0 0 0 0 0 0 0 0 0 0 0 0 0 0 1 1 0 0 0 1 4 3 1 0 0 0 0 0 0 0 0 0 0 0 0 0 0 0 0 0 0 0 0
0 0 0 0 0 0 0 0 0 0 0 0 0 0 0 0 0 0 0 1 2 2 1 0 0 0 0 0 0 0 0 0 0 0 0 0 0 0 0 0 0 0 0
0 0 0 0 0 0 0 0 0 0 0 0 0 0 0 0 0 0 0 0 0 0 0 0 0 0 0 0 0 0 0 0 0 0 0 0 0 0 0 0 0 0 0
0 0 0 0 0 0 0 0 0 0 0 0 0 0 0 0 0 0 0 0 0 0 0 0 0 0 0 0 0 0 0 0 0 0 0 0 0 0 0 0 0 0 0
0 0 0 0 0 0 0 0 0 0 0 0 0 0 0 0 0 0 0 0 0 0 0 0 0 0 0 0 0 0 0 0 0 0 0 0 0 0 0 0 0 0 0
0 0 0 0 0 0 0 0 0 0 0 0 0 0 0 0 0 0 0 0 0 0 0 0 0 0 0 0 0 0 0 0 0 0 0 0 0 0 0 0 0 0 0
0 0 0 0 0 0 0 0 0 0 0 0 0 0 0 0 0 0 0 0 0 0 0 0 0 0 0 0 0 0 0 0 0 0 0 0 0 0 0 0 0 0 0
0 0 0 0 0 0 0 0 0 0 0 0 0 0 0 0 0 0 0 0 0 0 0 0 0 0 0 0 0 0 0 0 0 0 0 0 0 0 0 0 0 0 0
0 0 0 0 0 0 0 0 0 0 0 0 0 0 0 0 0 0 0 0 0 0 0 0 0 0 0 0 0 0 0 0 0 0 0 0 0 0 0 0 0 0 0
0 0 0 0 0 0 0 0 0 0 0 0 0 0 0 0 0 0 0 0 0 0 0 0 0 0 0 0 0 0 0 0 0 0 0 0 0 0 0 0 0 0 0
0 0 0 0 0 0 0 0 0 0 0 0 0 0 0 0 0 0 0 0 0 0 0 0 0 0 0 0 0 0 0 0 0 0 0 0 0 0 0 0 0 0 0
0 0 0 0 0 0 0 0 0 0 0 0 0 0 0 0 0 0 0 0 0 0 0 0 0 0 0 0 0 0 0 0 0 0 0 0 0 0 0 0 0 0 0
0 0 0 0 0 0 0 0 0 0 0 0 0 0 0 0 0 0 0 0 0 0 0 0 0 0 0 0 0 0 0 0 0 0 0 0 0 0 0 0 0 0 0
0 0 0 0 0 0 0 0 0 0 0 0 0 0 0 0 0 0 0 0 0 0 0 0 0 0 0 0 0 0 0 0 0 0 0 0 0 0 0 0 0 0 0
0 0 0 0 0 0 0 0 0 0 0 0 0 0 0 0 0 0 0 0 0 0 0 0 0 0 0 0 0 0 0 0 0 0 0 0 0 0 0 0 0 0 0
0 0 0 0 0 0 0 0 0 0 0 0 0 0 0 0 0 0 0 0 0 0 0 0 0 0 0 0 0 0 0 0 0 0 0 0 0 0 0 0 0 0 0
0 0 0 0 0 0 0 0 0 0 0 0 0 0 0 0 0 0 0 0 0 0 0 0 0 0 0 0 0 0 0 0 0 0 0 0 0 0 0 0 0 0 0
0 0 0 0 0 0 0 0 0 0 0 0 0 0 0 0 0 0 0 0 0 0 0 0 0 0 0 0 0 0 0 0 0 0 0 0 0 0 0 0 0 0 0
0 0 0 0 0 0 0 0 0 0 0 0 0 0 0 0 0 0 0 0 0 0 0 0 0 0 0 0 0 0 0 0 0 0 0 0 0 0 0 0 0 0 0
0 0 0 0 0 0 0 0 0 0 0 0 0 0 0 0 0 0 0 0 0 0 0 0 0 0 0 0 0 0 0 0 0 0 0 0 0 0 0 0 0 0 0
0 0 0 0 0 0 0 0 0 0 0 0 0 0 0 0 0 0 0 0 0 0 0 0 0 0 0 0 0 0 0 0 0 0 0 0 0 0 0 0 0 0 0
Wind_Speed
6 6 6 6 7 7 6 5 6 7 8 8 8 7 7 7 7 6 6 6 6 5 5 5 6 6 5 5 5 5 5 5 4 2 3 6 7 9 8 8 8 8 9
6 6 7 7 7 8 8 7 7 7 6 7 8 8 9 9 8 7 7 6 5 5 5 5 5 5 6 5 5 5 5 5 5 7 5 5 7 9 9 9 8 8 8
7 7 7 8 8 8 8 8 9 8 8 7 7 8 9 9 9 8 7 6 5 4 4 4 4 5 6 5 5 4 3 4 6 9 7 5 6 7 9 9 10 8 9
9 9 9 9 9 9 9 9 10 10 10 9 7 7 8 10 10 9 8 6 5 4 3 2 3 4 5 5 4 2 2 5 8 9 9 7 6 7 7 8 8 6 7
9 10 10 10 9 10 10 10 10 10 12 10 9 8 8 9 10 9 8 8 5 4 2 1 2 3 3 3 1 1 5 7 8 9 9 7 7 7 6 5 8 7 6
9 10 10 10 10 10 10 10 10 10 10 10 9 9 9 10 10 10 8 6 4 3 3 3 4 3 3 6 7 7 7 9 9 8 7 8 7 5 4 5 7 8 6
10 11 10 10 10 10 12 11 10 10 10 10 10 9 9 9 10 9 9 6 5 4 5 5 4 5 4 5 8 11 11 11 10 8 9 7 6 5 5 5 5 6 5
11 12 11 10 11 10 10 9 8 7 8 8 9 9 8 9 9 8 9 7 6 6 6 6 6 7 6 7 7 8 8 8 8 7 7 6 5 4 5 6 6 6 6
14 13 13 12 12 10 10 9 7 7 7 8 9 10 9 8 8 8 9 6 7 7 7 8 9 9 10 10 9 10 10 8 10 13 12 11 10 8 5 4 5 5 5
15 14 13 13 13 12 11 9 9 7 8 9 10 10 9 6 6 8 9 6 7 6 6 8 11 12 12 10 9 10 11 9 10 11 9 9 7 7 7 4 2 4 6
15 15 14 13 13 13 11 9 9 9 9 9 9 9 8 7 7 9 10 6 5 6 7 8 8 15 13 10 9 8 11 11 9 8 7 5 5 4 5 5 4 2 5
15 16 15 13 14 14 10 9 8 8 8 9 9 10 8 6 7 9 11 10 5 3 5 8 10 15 13 11 8 12 15 11 7 6 5 5 5 6 6 6 6 6 7
16 16 15 15 13 12 11 10 8 7 7 8 8 8 7 5 6 9 10 9 6 3 3 9 16 16 14 9 12 15 12 6 6 6 6 5 6 7 6 5 5 6 6
16 15 14 13 12 11 9 8 8 7 8 8 8 6 4 3 4 5 5 5 5 3 3 11 17 15 9 11 11 9 6 4 5 5 7 8 6 5 4 4 4 5 5
15 14 13 12 11 10 9 8 9 8 7 6 5 4 3 3 5 7 7 6 4 4 6 8 9 8 8 8 7 6 5 5 5 7 8 7 6 4 4 4 4 5 5
12 12 10 8 8 8 8 8 10 10 8 7 5 3 2 3 6 8 8 8 8 8 7 8 10 10 10 9 8 7 5 5 5 7 7 6 5 5 4 4 4 5 6
12 11 8 8 8 7 7 7 6 6 6 6 5 5 6 8 7 8 9 9 9 8 6 7 8 9 9 9 7 6 6 5 5 6 6 5 5 5 5 4 3 4 5
11 11 9 7 7 6 6 6 5 5 6 5 5 7 9 9 8 9 11 10 6 6 7 7 7 7 8 7 7 6 6 6 6 6 5 5 5 5 4 4 3 4 5
8 6 5 5 5 5 5 5 5 5 4 4 6 6 7 8 7 8 9 6 8 8 6 5 6 7 7 7 6 7 7 6 5 5 5 5 5 5 4 4 4 5 4
5 4 3 2 3 3 4 4 4 4 4 4 6 7 7 6 5 5 4 5 6 5 3 3 4 6 6 6 7 7 8 6 6 5 5 5 5 5 5 5 6 4 3
3 1 2 2 2 2 2 3 3 4 4 5 5 8 10 8 7 8 6 5 5 4 2 2 3 5 6 6 7 8 9 7 5 5 6 5 5 5 4 5 6 5 4
3 2 1 1 2 2 2 2 3 3 4 7 7 8 9 7 7 7 6 5 4 3 2 2 3 4 6 7 7 7 8 8 6 6 7 6 4 5 5 5 6 5 4
4 3 3 3 3 3 3 3 2 3 5 6 7 8 7 6 8 8 7 6 4 4 3 2 3 4 5 5 6 7 8 8 7 6 7 6 5 4 4 4 5 5 5
4 4 4 3 3 3 4 3 3 4 5 6 7 7 7 7 8 9 8 6 6 5 4 3 3 5 7 6 5 6 6 8 8 7 8 7 6 5 4 4 4 5 5
5 5 4 4 3 3 3 3 3 4 5 6 6 6 7 7 8 9 8 8 7 6 6 5 4 5 8 8 6 6 9 10 8 7 6 5 6 6 6 6 4 4 5
5 4 3 3 3 2 2 2 3 4 4 5 6 7 7 8 9 9 9 8 7 6 5 4 5 6 7 7 9 10 10 10 9 7 4 5 4 4 4 4 6 5 5
Wind_Direction
331 330 327 325 325 324 321 331 336 336 333 321 306 292 278 263 252 245 249 262 269 277 286 293 297 296 287 279 265 248 233 213 200 120 108 122 117 115 109 110 111 101 100
314 316 316 315 312 310 310 316 317 316 319 320 313 299 284 275 263 252 252 263 272 280 291 301 306 308 309 294 275 254 232 204 166 144 131 128 121 119 117 112 108 103 101
286 284 285 288 292 293 296 299 300 301 301 305 310 307 298 287 277 267 256 253 260 272 287 300 309 314 313 305 289 264 227 189 151 140 135 126 120 123 118 112 111 111 108
266 260 259 261 264 268 273 277 280 283 286 287 290 297 301 296 283 272 264 253 251 260 273 296 316 322 317 306 287 254 171 139 134 135 135 132 128 125 123 126 125 128 127
274 267 261 255 253 256 259 263 267 270 274 276 280 285 291 291 281 277 267 253 235 233 226 183 49 35 9 346 314 160 142 133 133 133 133 132 134 138 139 143 139 137 128
277 274 268 261 258 257 256 255 257 260 263 266 266 271 277 281 298 302 282 266 245 219 200 160 138 112 80 71 75 87 118 132 134 133 133 138 139 139 138 146 146 145 142
290 286 279 271 266 261 264 261 254 254 254 257 259 259 261 267 268 263 264 262 240 214 193 175 172 137 135 112 93 86 88 102 119 128 135 138 142 152 158 162 162 154 138
291 291 289 285 281 274 265 262 260 261 262 263 264 263 260 265 257 243 243 245 239 217 190 171 151 150 153 139 123 107 101 100 115 121 120 120 129 145 150 148 138 123 121
291 288 288 285 283 279 274 268 265 261 262 262 264 259 254 254 245 232 223 234 227 213 189 169 157 153 154 149 130 117 109 103 100 104 108 112 111 106 111 129 137 134 132
290 288 287 282 279 277 275 273 272 266 264 263 260 258 254 249 227 216 211 231 225 203 182 165 160 151 154 150 139 132 127 127 124 118 115 119 116 106 96 95 117 146 142
289 287 284 280 277 274 269 265 264 262 263 263 265 265 256 242 220 206 202 220 234 201 176 164 153 150 150 148 145 136 138 136 133 131 127 123 113 96 81 70 62 108 135
288 284 281 276 275 274 267 265 262 257 258 260 257 256 254 232 210 200 198 207 232 245 190 164 153 154 148 147 144 143 147 144 138 136 134 133 118 97 87 78 69 66 87
286 281 278 276 271 267 264 264 261 251 248 252 252 245 240 223 191 190 193 195 207 239 236 160 149 149 143 143 149 154 158 158 146 145 139 123 110 111 106 95 87 79 72
280 279 276 273 268 262 254 252 250 244 243 246 250 253 238 202 182 174 173 168 155 171 170 146 140 145 143 136 148 162 177 171 154 141 124 117 119 127 133 138 130 113 95
279 276 274 268 263 259 252 245 243 239 236 239 244 241 232 212 187 176 170 171 152 141 148 151 146 148 146 147 160 176 183 156 140 125 124 131 142 154 156 154 145 132 122
279 275 269 263 258 252 248 248 232 227 217 203 197 186 148 135 147 168 166 153 137 150 172 163 156 156 155 158 167 170 165 146 137 131 135 144 156 159 148 145 155 147 145
276 272 265 260 255 247 238 232 228 211 191 182 184 168 144 137 145 158 153 148 148 159 194 176 161 159 158 161 163 158 151 140 134 135 144 150 151 142 139 155 164 143 140
276 270 261 254 248 241 233 224 215 203 188 181 159 147 138 137 139 143 140 135 151 186 207 178 162 159 156 157 157 154 145 137 138 144 150 149 146 144 152 162 153 141 134
281 272 263 251 236 227 222 217 212 203 192 170 143 132 127 122 117 137 149 158 174 194 203 169 159 154 152 152 150 145 139 141 153 151 148 148 150 152 160 165 133 128 145
293 283 272 253 227 218 213 208 191 176 170 161 153 145 144 144 141 147 164 173 187 195 183 152 151 147 147 147 140 139 141 150 158 154 145 151 154 159 166 159 140 148 184
341 8 219 224 198 186 183 182 168 162 157 154 148 146 155 155 152 155 166 179 184 192 178 161 147 147 143 141 144 148 149 154 160 159 148 161 165 165 161 151 146 168 187
1 28 69 93 107 112 124 140 148 146 143 136 131 140 159 155 149 152 164 178 185 198 198 185 168 153 150 151 150 152 153 156 166 164 152 166 167 165 165 163 167 179 181
14 39 66 81 94 110 119 126 134 135 134 135 140 147 163 157 154 159 164 170 190 212 217 200 181 164 157 150 149 156 159 160 165 164 156 164 171 171 174 175 175 173 176
22 33 59 89 108 117 114 126 134 135 138 138 140 148 154 155 157 159 163 175 193 209 217 201 189 175 160 150 154 162 158 154 158 163 164 168 173 177 181 177 178 187 189
25 35 47 62 79 93 104 117 120 124 130 135 142 148 151 156 160 164 172 181 193 204 196 191 191 175 165 162 155 140 134 138 148 158 162 175 183 185 187 184 187 202 204
13 25 38 51 62 74 95 109 119 129 136 142 145 151 158 161 163 168 177 183 186 188 184 174 166 158 157 153 135 127 129 131 130 134 163 182 202 202 196 201 204 207 210